This is the latest recevied weather packets stored in our database for station/object OK3MS-5. If no packets are shown the sender has not sent any weather packets the latest 10 day(s).
| Time | Temp. | Humidity | Pressure | Rain* | Wind** | Luminosity | Snow |
|---|---|---|---|---|---|---|---|
| 1787385304 | 17.22° C | 79% | 1013.7 hPa | 0 mm | - | 168 W/m² | - |
| 1787385004 | 16.67° C | 81% | 1013.8 hPa | 0 mm | - | 491 W/m² | - |
| 1787384702 | 16.67° C | 84% | 1013.8 hPa | 0 mm | - | 420 W/m² | - |
| 1787384402 | 16.67° C | 82% | 1013.8 hPa | 0 mm | - | 223 W/m² | - |
| 1787384104 | 16.67° C | 83% | 1013.8 hPa | 0 mm | - | 405 W/m² | - |
| 1787383805 | 16.11° C | 86% | 1013.9 hPa | 0 mm | - | 242 W/m² | - |
| 1787383504 | 16.11° C | 86% | 1013.9 hPa | 0 mm | - | 356 W/m² | - |
| 1787383204 | 15.56° C | 86% | 1013.9 hPa | 0 mm | - | 323 W/m² | - |
| 1787382903 | 15.56° C | 87% | 1013.9 hPa | 0 mm | - | 310 W/m² | - |
| 1787382604 | 15° C | 88% | 1014.1 hPa | 0 mm | - | 294 W/m² | - |
| 1787382304 | 15° C | 88% | 1014 hPa | 0 mm | - | 284 W/m² | - |
| 1787382003 | 15.56° C | 88% | 1014 hPa | 0 mm | - | 102 W/m² | - |
| 1787381703 | 15° C | 89% | 1013.9 hPa | 0 mm | - | 166 W/m² | - |
| 1787381405 | 14.44° C | 89% | 1014 hPa | 0 mm | - | 273 W/m² | - |
| 1787381103 | 14.44° C | 91% | 1014 hPa | 0 mm | - | 248 W/m² | - |
| 1787380802 | 14.44° C | 92% | 1013.9 hPa | 0 mm | - | 79 W/m² | - |
| 1787380504 | 14.44° C | 92% | 1013.9 hPa | 0 mm | - | 127 W/m² | - |
| 1787380203 | 14.44° C | 92% | 1013.9 hPa | 0 mm | - | 118 W/m² | - |
| 1787379903 | 13.89° C | 93% | 1013.9 hPa | 0 mm | - | 118 W/m² | - |
| 1787379604 | 13.89° C | 94% | 1013.8 hPa | 0 mm | - | 174 W/m² | - |
| 1787379305 | 13.33° C | 95% | 1013.9 hPa | 0 mm | - | 117 W/m² | - |
| 1787379003 | 13.33° C | 95% | 1013.9 hPa | 0 mm | - | 90 W/m² | - |
| 1787378704 | 13.33° C | 95% | 1013.9 hPa | 0 mm | - | 123 W/m² | - |
| 1787378402 | 13.33° C | 96% | 1013.9 hPa | 0 mm | - | 97 W/m² | - |
| 1787378103 | 13.33° C | 96% | 1014 hPa | 0 mm | - | 99 W/m² | - |
* Rain latest hour (hover to see other rain measurements)
** Current wind speed in m/s (hover to see current wind gust speed)